Regional Weather Roundup
Issued by NWS

Home | Current Version | Previous Version | Graphics & Text | Print | Product List | Glossary On
Versions: 1 2 3 4 5 6 7 8 9 10 11 12 13 14 15 16 17 18 19 20 21 22 23 24 25 26 27 28 29 30 31 32 33 34 35 36 37 38 39 40 41 42 43 44 45 46 47 48 49 50
662
ASUS43 KDTX 271110
RWRMI
MICHIGAN HOURLY REGIONAL WEATHER ROUNDUP
NATIONAL WEATHER SERVICE DETROIT/PONTIAC MI
700 AM EDT MON MAR 27 2017

NOTE: "FAIR" INDICATES FEW OR NO CLOUDS BELOW 12,000 FEET WITH NO
SIGNIFICANT WEATHER AND/OR OBSTRUCTION TO VISIBILITY.

MIZ047>049-052>055-059>063-066>070-074>076-081>083-271200-
SOUTHEAST LOWER MICHIGAN

CITY           SKY/WX    TMP DP  RH WIND       PRES   REMARKS
ADRIAN         CLOUDY    51  50  96 SW5       29.90S
ALMA           CLOUDY    49  49 100 SW8       29.86R
ANN ARBOR      CLOUDY    51  51 100 S3        29.88S
BAD AXE        FOG       48  48 100 SW3       29.85R VSB 1/4
CARO           CLOUDY    51  51  99 SW8       29.84S FOG
DETROIT CITY   CLOUDY    51  51 100 W6        29.88S
DETROIT        CLOUDY    52  50  93 SW6       29.89F FOG
FLINT          CLOUDY    52  50  93 SW7       29.87R
GROSSE ILE     CLOUDY    51  50  98 W3        29.88S FOG
HILLSDALE      CLOUDY    50  46  87 W8        29.89R
HOWELL         CLOUDY    51  49  92 SW5       29.87S FOG

CITY           SKY/WX    TMP DP  RH WIND       PRES   REMARKS
JACKSON        CLOUDY    51  50  96 SW9       29.88S
LAMBERTVILLE   CLOUDY    54  51  90 W5        29.90S
LANSING        CLOUDY    51  48  89 W10       29.88R
LAPEER         CLOUDY    52  51  95 SW6       29.86S FOG
MASON          CLOUDY    51  51  98 SW5       29.87S FOG
MONROE         CLOUDY    52  51  99 SW7       29.89R FOG
MT. CLEMENS    CLOUDY    50  50 100 SW3       29.86S
PONTIAC        CLOUDY    51  49  92 SW8       29.86S FOG
PORT HOPE        N/A     49  49 100 W3        29.82R
PORT HURON     CLOUDY    48  46  93 S3        29.88R FOG
TRI CITIES     CLOUDY    50  50 100 SW7       29.85R FOG
MIDLAND        SNOW      45  45  98 CALM      29.84R VSB 1/4
TROY           CLOUDY    51  49  96 SW6       29.89S FOG
SAGINAW HB     CLOUDY    52  48  87 SW9       29.85R FOG
$$
MIZ043>046-050>051-056>058-064>065-071>073-077>080-271200-
SOUTHWEST LOWER MICHIGAN

CITY           SKY/WX    TMP DP  RH WIND       PRES   REMARKS
BATTLE CREEK   CLOUDY    50  50 100 W6        29.89R FOG
BENTON HARBOR  CLOUDY    45  43  93 N3        29.89S FOG
BIG RAPIDS     CLOUDY    42  41  96 W5        29.85R
COLDWATER      CLOUDY    50  50  99 SW6       29.89S
FREMONT        CLOUDY    40  40 100 W3        29.87S
HOLLAND        CLOUDY    40  40 100 NW3       29.90S FOG
GRAND RAPIDS   CLOUDY    44  44 100 W9        29.88S
IONIA          CLOUDY    46  46  98 W13G18    29.87R FOG
KALAMAZOO      CLOUDY    50  47  89 W6        29.89S FOG
LUDINGTON      CLOUDY    37  37 100 CALM      29.89R FOG
MARSHALL       CLOUDY    51  50  97 W9        29.88S
MOUNT PLEASANT FOG       45  44  97 CALM      29.84R VSB 1
MUSKEGON       CLOUDY    39  38  96 W5        29.90R
SOUTH HAVEN    CLOUDY    41  41  99 CALM      29.89F FOG
$$
MIZ016>042-271200-
NORTHERN LOWER MICHIGAN

CITY           SKY/WX    TMP DP  RH WIND       PRES   REMARKS
ALPENA         CLOUDY    39  39 100 CALM      29.83R FOG
BEAVER ISLAND  CLOUDY    33  33 100 N5        29.85R WCI  29
BELLAIRE       CLOUDY    38  37  96 SW5       29.85R FOG     WCI  35
CADILLAC       CLOUDY    42  41  97 W5        29.82S FOG
CHARLEVOIX     FOG       34  34 100 NW5       29.87R VSB 3/4 WCI  30
FRANKFORT      CLOUDY    37  35  93 NW5       29.88R FOG     WCI  33
GAYLORD        FOG       41  38  89 W3        29.81R VSB 1/2
GRAYLING       FOG       43  41  93 CALM      29.83R VSB 1
HARBOR SPRINGS FOG       35  35 100 CALM      29.83R VSB 1/2
HOUGHTON LAKE  FOG       41  40  96 W3        29.83R VSB 1/4
MANISTEE       MIX PCPN  37  36  96 NW6       29.88R WCI  32
OSCODA         CLOUDY    42  41  98 CALM      29.82S FOG
PELLSTON       CLOUDY    35  33  92 N3        29.84R FOG
ROGERS CITY    CLOUDY    37  36  96 CALM      29.83  FOG
TRAVERSE CITY  DRIZZLE   39  38  96 NW6       29.85R FOG     WCI  35
$$
MIZ007>008-015-271200-
EASTERN UPPER MICHIGAN

CITY           SKY/WX    TMP DP  RH WIND       PRES   REMARKS
KINROSS        FOG       32  32 100 N3        29.83R VSB 1/2
MACKINAC ISLAN CLOUDY    32  32 100 N3        29.83R
NEWBERRY       CLOUDY    32  31  96 N5        29.84R FOG     WCI  27
S. S. MARIE    CLOUDY    35  33  92 CALM      29.82R
MUNISING         N/A     34  33  96 NW12      29.88R WCI  25
$$
MIZ004>006-011>014-085-271200-
CENTRAL UPPER MICHIGAN

CITY           SKY/WX    TMP DP  RH WIND       PRES   REMARKS
MANISTIQUE     CLOUDY    34  32  93 NW7       29.86R WCI  28
ESCANABA       CLOUDY    34  33  96 NW3       29.90R
MENOMINEE        N/A    N/A N/A N/A MISG        N/A
SAWYER-GWINN   CLOUDY    32  32 100 NW9       29.89R FOG     WCI  24
$$
MIZ001>003-009>011-084-271200-
WESTERN UPPER MICHIGAN

CITY           SKY/WX    TMP DP  RH WIND       PRES   REMARKS
IRON MOUNTAIN  CLOUDY    34  31  88 NW7       29.88R WCI  28
HOUGHTON       FOG       32  30  92 NW12      29.90R VSB 3/4 WCI  23
COPPER HARBOR    N/A     33  32  96 N8        29.91R WCI  26
IRONWOOD       FOG       32  31  96 NW3       29.94R VSB 1/2
$$

ABBREVIATIONS USED IN REMARKS
   TC - TEMPERATURE IN CELSIUS
  WCI - WIND CHILL INDEX
   HX - HEAT INDEX
  VSB - VISIBILITY





USA.gov is the U.S. government's official web portal to all federal, state and local government web resources and services.